Theta_e
289 290 290 289 289 289 289 289 288 289 288 287 286 286 286 285 285 285 284 283 283 283 282 282 282 282 281 280 279 279 279 278 278 278 278 277 277 277 276 276 276 275 275 274 275 275 274 274 274 273 274 273 273 273 273 273 273 273 273 273 272 273 272 271 269 270 272 274 273 273 274 275 273 274 274 274 274 275 278 276 276 276 276 276 276
289 290 290 290 289 289 289 288 288 288 287 287 286 286 285 285 285 284 283 283 283 283 282 282 282 281 281 280 279 279 279 278 278 278 277 277 276 276 276 276 275 275 274 274 274 274 274 273 273 273 273 273 273 272 272 272 272 272 272 272 272 272 273 271 270 270 269 272 272 273 273 274 272 274 273 274 274 276 275 276 277 276 276 276 276
290 290 289 289 288 289 288 288 287 287 287 286 286 286 285 285 284 283 283 283 283 283 282 282 281 281 280 280 279 279 279 278 278 277 277 277 276 276 275 275 275 274 274 274 273 274 273 273 272 273 273 272 272 272 272 272 272 272 271 272 271 272 272 272 270 269 269 270 272 271 272 273 273 273 274 275 275 276 275 275 276 277 277 277 277
289 289 289 289 289 288 288 288 287 286 286 286 286 286 285 285 284 284 283 283 282 282 282 282 281 281 280 279 279 279 278 278 277 277 277 277 276 275 275 275 275 274 274 274 273 273 273 272 272 272 272 271 272 272 272 272 272 272 271 272 271 271 271 271 271 270 269 269 270 271 273 273 273 274 275 276 275 275 275 276 276 276 277 277 277
289 288 288 288 288 287 287 287 287 286 286 286 286 286 286 285 284 283 283 282 282 282 281 281 281 280 280 279 279 278 278 278 277 277 277 277 276 275 275 275 275 274 274 274 274 273 273 272 272 272 272 271 271 271 271 271 271 271 271 271 271 271 271 271 271 271 269 269 270 272 273 273 274 274 275 274 275 275 276 276 276 276 276 277 278
288 288 288 287 287 287 287 287 287 286 286 286 286 286 286 285 283 283 283 282 281 281 281 281 281 280 280 279 279 278 278 278 277 277 276 276 275 275 275 274 274 274 274 273 273 273 272 272 272 272 272 271 271 271 271 271 271 271 270 271 271 271 271 270 271 271 270 270 271 271 273 273 273 274 275 275 275 275 275 276 277 277 277 276 277
288 288 288 287 287 287 287 287 287 287 287 287 287 286 285 284 283 283 282 282 281 280 280 280 280 280 280 279 278 278 278 277 277 276 276 275 275 275 274 274 274 273 273 273 273 272 272 272 272 272 271 271 271 271 271 271 271 270 271 270 271 270 270 271 271 271 271 271 272 272 272 274 274 273 275 276 276 276 274 275 275 276 277 277 277
288 288 288 287 287 287 287 287 287 287 287 287 286 285 285 284 283 283 282 281 281 280 280 280 280 279 279 279 278 278 277 276 276 276 275 275 274 274 274 273 273 273 272 272 272 272 272 272 272 272 272 272 271 271 271 271 271 270 271 271 271 271 271 272 272 272 272 272 272 272 273 273 274 276 276 276 275 275 276 275 273 274 275 276 276
287 287 287 287 287 287 287 287 287 287 286 285 285 284 284 284 283 282 281 281 281 281 281 280 279 278 278 278 277 277 277 276 276 276 275 274 274 274 273 273 272 272 272 272 272 272 271 271 272 271 272 274 275 274 274 273 270 270 271 272 272 272 272 273 273 273 273 273 272 274 273 273 274 274 273 274 274 274 275 276 275 275 275 275 275
287 287 287 287 288 287 287 287 286 286 285 285 285 284 283 283 282 282 281 281 280 280 280 279 279 278 277 277 277 276 276 276 278 280 279 275 274 274 273 272 272 272 271 271 271 271 271 271 272 275 275 275 276 276 276 276 276 273 272 273 274 274 273 273 273 273 273 272 273 273 272 272 273 274 274 275 275 276 275 275 273 274 274 274 275
287 286 287 287 287 286 286 286 286 285 285 285 285 284 283 282 281 281 280 279 279 278 279 278 278 278 277 277 276 276 276 276 280 282 281 280 275 273 273 272 272 272 271 271 270 271 271 271 271 274 275 275 275 277 278 278 278 278 278 278 278 276 274 274 273 274 273 273 274 273 273 273 274 275 274 275 275 274 274 274 274 274 273 272 271
287 287 287 287 287 286 286 285 285 285 284 284 284 283 282 280 280 279 279 278 278 278 278 278 278 277 277 277 276 276 276 279 281 282 282 281 278 274 273 272 271 271 271 271 271 271 271 271 272 272 274 274 275 276 277 279 279 280 280 280 280 280 280 277 275 274 274 273 273 274 274 273 274 275 275 275 274 274 275 274 274 273 273 272 272
286 286 287 286 286 286 285 285 285 284 284 284 283 281 280 280 279 278 278 278 278 277 277 277 277 277 277 276 276 276 275 280 282 283 283 282 280 276 273 272 271 271 271 271 271 272 272 272 272 273 274 277 276 276 276 276 278 279 279 279 279 279 279 280 280 278 276 275 273 273 274 274 274 274 275 274 276 274 274 273 274 274 273 273 273
285 286 286 286 286 286 285 285 285 285 284 283 282 281 280 279 279 279 278 277 277 277 277 277 277 277 277 276 276 276 275 279 282 283 283 282 281 277 272 272 272 272 272 272 272 273 273 273 274 274 275 276 276 275 273 272 272 272 273 273 274 275 277 278 278 278 278 276 275 274 275 275 273 274 276 277 275 273 273 272 274 274 274 273 274
285 285 285 285 284 284 284 284 284 284 282 282 281 280 280 279 279 278 278 278 277 277 277 277 277 276 276 276 276 275 274 280 283 284 283 283 281 277 272 272 271 271 272 273 273 274 275 275 275 274 274 274 274 274 273 272 271 270 271 271 273 274 274 275 275 276 276 276 275 275 275 276 276 277 277 277 276 276 276 275 274 273 272 272 271
282 283 283 283 282 282 282 282 282 282 281 280 280 280 279 279 279 279 278 278 277 277 277 277 276 276 276 275 275 274 274 281 283 284 284 283 282 273 272 272 272 272 272 274 274 275 276 275 275 274 274 273 275 277 275 273 272 271 271 272 273 274 275 277 278 279 278 277 277 277 277 278 280 278 278 278 278 278 277 274 273 270 268 267 266
280 280 281 281 280 280 280 281 280 280 280 279 279 279 279 279 279 279 278 278 277 277 277 276 276 276 275 275 274 274 273 280 283 284 284 284 280 272 272 272 272 273 273 274 275 276 276 275 274 273 273 273 275 278 278 277 273 272 273 273 274 274 274 275 278 279 280 280 281 281 281 281 281 281 281 281 279 278 273 269 267 268 267 265 266
280 279 280 280 280 279 280 281 282 280 279 279 279 279 279 279 279 278 277 277 276 276 276 276 276 275 275 274 274 273 273 278 283 284 284 284 279 273 273 273 273 273 274 275 275 275 276 276 275 273 273 273 276 278 278 277 275 274 274 273 273 272 273 275 276 276 278 278 278 278 279 279 279 280 279 278 278 276 270 266 268 268 266 266 264
280 280 280 281 280 279 277 277 279 279 279 279 278 278 279 278 278 277 277 277 276 276 275 275 274 274 274 274 275 274 272 277 283 284 284 284 278 274 274 273 273 273 273 273 274 273 274 275 276 274 274 274 277 278 279 278 275 274 274 273 272 272 273 275 274 273 272 272 273 274 275 275 274 271 271 275 274 273 270 269 268 266 265 265 266
280 280 280 280 280 279 278 277 277 277 276 275 275 276 277 276 276 276 275 275 275 275 274 274 273 272 273 273 274 274 273 275 280 284 284 284 281 275 274 273 272 272 272 271 271 272 272 273 275 277 277 276 277 278 278 279 276 275 274 273 272 272 275 274 273 272 272 273 273 272 271 270 269 268 268 268 268 269 269 269 269 268 267 266 266
280 279 278 278 278 278 277 277 276 276 275 275 275 274 274 274 274 274 274 274 274 273 273 273 272 272 272 272 273 273 273 274 279 284 284 284 283 278 274 274 273 272 271 271 271 271 271 272 273 277 279 278 278 279 279 279 278 275 275 274 274 274 275 273 274 275 272 270 269 268 267 266 265 266 266 267 267 268 269 270 270 270 269 267 267
279 279 278 277 277 277 276 276 275 275 275 276 275 275 274 274 274 274 274 273 272 272 272 271 271 271 271 271 272 272 273 276 277 283 284 284 283 280 275 274 274 272 271 270 271 271 271 272 272 275 279 279 279 278 278 278 278 276 275 277 277 277 275 274 270 267 266 264 263 263 262 262 263 263 265 266 267 268 269 269 270 270 270 270 269
280 279 278 278 277 276 275 276 275 274 275 275 275 274 273 272 273 273 273 272 272 271 271 271 270 270 270 270 271 271 271 274 279 280 283 284 284 281 278 276 278 273 271 270 270 271 272 273 274 276 277 277 277 277 277 278 277 276 277 276 276 276 275 268 265 263 261 261 260 260 261 262 262 263 264 265 267 268 269 269 269 270 270 270 271
280 279 279 278 277 276 275 276 276 276 275 275 275 274 273 273 272 272 272 272 271 271 270 270 270 269 268 269 269 270 271 272 277 280 281 283 284 282 280 278 279 273 272 271 272 272 273 273 274 276 276 276 276 276 277 277 276 275 275 275 275 273 266 263 261 259 260 260 260 260 260 262 263 264 265 266 267 268 268 269 269 269 269 270 270
282 280 280 278 277 276 276 276 276 275 275 276 275 274 273 272 272 272 272 272 271 271 270 270 270 269 268 268 268 269 270 271 273 278 281 282 283 282 280 279 279 277 272 272 273 273 275 275 276 276 276 275 276 277 275 273 273 273 273 273 272 263 261 259 258 257 258 258 259 260 261 263 264 265 267 267 268 268 268 268 269 269 269 270 270
281 281 281 279 277 276 275 275 275 275 275 275 275 275 273 272 272 272 271 271 271 271 270 270 269 269 268 268 268 268 269 270 271 275 279 280 281 282 280 279 279 277 274 273 275 276 277 276 276 275 275 275 272 268 266 267 270 271 271 269 262 259 258 257 257 258 258 259 261 261 262 263 264 266 266 267 266 265 266 265 266 266 267 267 267
280 280 281 280 278 276 275 275 274 274 274 274 275 274 273 273 272 271 271 271 271 271 271 270 268 268 267 268 268 268 268 269 270 273 276 278 279 280 278 278 279 277 274 274 275 274 275 274 273 274 272 272 271 270 269 268 264 262 261 260 259 258 258 257 258 259 261 262 262 262 263 264 265 265 264 264 264 265 266 266 266 266 267 267 267
280 280 280 280 279 276 275 273 273 274 273 273 273 273 272 272 272 272 271 271 271 270 270 270 268 268 268 268 267 267 267 268 269 271 274 276 277 278 277 276 276 274 272 273 272 272 272 273 270 265 264 262 262 259 260 260 260 260 258 258 257 259 262 265 265 264 263 262 261 262 262 262 261 262 263 263 263 264 266 266 266 266 267 267 266
278 279 279 279 279 276 275 275 274 274 273 273 273 274 273 272 272 273 273 273 273 272 271 271 270 269 269 269 267 266 267 267 269 274 274 278 276 276 275 275 275 272 273 274 267 265 264 263 262 261 259 260 259 257 257 256 257 257 256 256 256 256 256 256 257 258 259 260 259 260 260 261 261 262 262 262 263 264 266 266 267 267 267 267 266
275 276 277 278 278 277 275 274 273 273 273 273 272 272 274 276 274 273 272 275 276 277 276 272 271 270 270 270 270 268 267 269 274 276 277 279 280 279 278 278 276 273 275 275 270 265 264 263 262 261 259 258 258 258 258 258 257 256 255 260 259 257 258 258 258 259 259 260 260 260 260 260 260 261 262 262 263 265 266 268 267 267 266 266 265
272 273 275 276 277 277 276 275 274 273 273 273 272 271 271 273 277 277 276 275 276 277 277 277 276 275 272 270 272 274 273 273 275 276 278 279 280 279 278 278 277 277 276 270 267 264 263 262 260 259 259 258 258 258 257 257 257 256 256 256 257 257 259 258 259 259 259 259 259 260 260 260 260 261 262 263 264 265 266 267 267 267 266 265 265
271 272 273 275 276 276 276 275 274 273 272 272 271 271 271 270 270 275 277 276 276 277 277 278 277 276 276 274 272 271 274 275 276 278 278 279 279 279 279 278 278 278 277 273 265 263 262 262 260 259 258 257 257 257 257 257 257 256 256 256 257 258 258 258 260 259 259 259 259 259 260 260 261 262 263 264 265 265 265 266 266 266 266 266 265
269 269 271 272 274 275 275 275 274 273 272 271 270 270 270 270 269 269 272 277 277 277 277 278 278 277 277 277 276 274 274 275 277 278 278 279 279 278 279 278 278 278 277 268 264 262 261 261 260 258 257 257 257 256 256 256 256 256 256 256 256 257 258 259 260 259 259 259 260 260 261 261 262 263 264 264 265 265 266 266 266 266 265 265 265
266 267 269 270 272 274 275 275 274 273 272 272 271 271 270 271 270 270 269 270 272 275 277 278 278 278 278 278 277 276 276 277 278 278 278 279 279 279 278 276 278 278 274 265 264 262 260 259 259 256 256 256 255 256 256 256 256 256 256 256 257 257 258 259 258 258 258 258 258 259 261 261 263 263 263 264 265 266 266 266 266 265 264 264 264
266 267 269 270 271 272 273 275 274 273 272 271 271 270 270 270 270 270 269 269 269 269 270 273 277 278 276 276 277 277 277 277 278 278 278 279 279 279 278 274 273 272 267 264 263 262 259 259 257 256 256 255 255 255 255 255 255 255 255 255 256 256 256 257 257 257 257 258 259 260 261 262 262 263 264 264 264 265 265 265 265 265 264 263 263
268 270 271 272 273 273 274 275 275 274 273 272 271 271 270 270 269 269 270 270 269 269 270 271 273 276 278 277 277 277 278 278 278 278 278 279 279 279 272 271 269 265 263 261 261 260 260 259 258 256 256 255 255 254 255 254 254 255 255 254 255 255 255 255 256 257 258 260 261 261 262 261 262 263 264 265 265 265 265 265 265 264 264 263 264
265 266 267 268 269 271 274 276 275 274 274 272 271 270 270 270 270 269 269 269 269 270 270 271 272 273 276 274 275 277 278 278 279 279 279 279 279 276 271 270 266 264 261 260 259 258 257 256 257 255 255 254 254 254 254 254 254 254 256 256 256 255 254 255 256 259 260 260 259 259 259 260 262 263 264 264 265 266 266 265 264 264 264 264 264
266 267 268 270 270 271 272 274 274 273 272 272 271 270 269 269 269 269 269 269 269 269 270 270 272 271 271 271 274 275 276 278 279 278 279 278 276 271 269 267 264 262 261 259 258 258 258 257 254 253 254 254 253 253 252 253 253 253 253 253 254 254 258 259 260 258 257 257 257 259 260 261 263 264 265 265 265 265 265 265 264 263 263 263 263
266 267 268 268 270 269 271 273 273 272 271 270 270 269 268 268 268 268 269 269 269 269 270 270 270 270 271 271 273 274 275 274 274 273 274 274 271 268 267 264 263 262 260 258 257 257 256 253 253 253 252 252 252 252 252 253 253 252 253 252 253 253 254 255 255 255 256 257 258 259 260 262 263 264 265 265 265 266 265 265 264 263 262 262 262
265 266 267 268 268 269 270 271 272 271 270 270 269 269 268 268 268 268 268 269 269 269 269 270 270 270 271 272 272 274 273 273 273 273 271 266 265 265 264 262 261 260 259 257 256 255 254 253 253 253 252 251 252 251 252 252 252 252 252 252 252 252 254 254 255 255 256 257 258 259 261 262 264 265 265 266 266 266 265 264 263 263 263 262 263
266 267 267 269 269 269 269 270 271 270 270 269 269 269 268 268 268 268 269 269 269 269 269 269 270 271 272 272 276 276 273 272 272 268 264 264 263 262 262 261 261 259 258 257 256 255 255 254 252 252 251 251 251 251 251 251 251 251 251 252 252 253 254 254 255 255 256 257 258 259 261 263 264 265 265 265 268 267 265 264 263 263 263 263 263
267 267 267 268 269 269 269 270 270 270 269 269 269 268 268 268 268 269 268 269 268 269 269 269 270 270 272 276 276 277 273 270 267 265 263 262 261 261 261 260 260 259 258 257 256 255 254 253 252 251 250 250 250 250 250 250 250 250 250 251 251 252 253 254 255 255 256 257 259 261 262 264 264 265 265 268 266 265 264 263 263 263 262 262 263
264 265 268 269 269 270 270 270 271 270 269 268 268 267 268 268 268 268 268 268 269 268 269 268 269 269 271 275 276 276 267 265 262 262 261 260 260 259 259 258 258 258 258 257 256 255 254 253 251 250 250 250 250 250 250 250 249 249 249 250 252 253 253 254 255 256 257 258 259 261 262 263 264 264 265 265 265 264 264 263 262 262 262 262 262
263 264 265 265 267 270 271 271 270 269 268 268 268 268 268 268 268 268 268 268 268 268 268 268 268 268 270 273 273 265 263 262 261 261 259 259 258 257 256 255 254 252 250 250 249 250 251 251 250 249 249 248 248 248 249 248 248 248 249 251 253 254 254 255 255 256 257 258 259 261 262 263 264 264 265 265 264 264 263 263 262 262 262 262 262
260 261 262 264 265 266 269 270 270 268 268 267 267 267 267 267 267 268 268 268 267 267 267 267 267 268 270 269 264 263 262 261 259 258 258 258 257 256 255 253 252 251 251 249 249 249 249 249 249 248 248 248 247 247 247 248 248 249 249 250 251 253 254 254 255 256 257 258 260 261 262 263 263 265 265 265 264 264 263 262 262 262 262 262 262
260 261 262 263 265 267 269 269 268 268 267 267 266 266 266 267 267 267 267 267 266 266 265 266 267 268 268 264 263 261 261 259 258 258 257 257 256 255 254 253 253 252 250 249 248 248 248 248 248 248 248 247 246 247 247 248 248 249 249 250 251 252 253 254 255 256 258 259 261 262 263 263 264 266 265 265 264 264 263 262 262 262 261 262 262
260 261 262 263 264 267 268 268 267 267 266 266 266 266 266 266 266 266 265 266 265 264 264 265 266 267 264 262 261 260 259 258 258 256 256 256 255 253 252 251 249 249 248 248 247 247 248 248 248 247 247 246 246 247 247 248 247 248 249 250 251 252 253 254 256 257 259 261 262 263 263 264 265 265 265 265 264 263 263 262 262 261 261 262 262
261 261 262 263 265 267 267 266 266 264 265 265 265 265 265 265 265 265 265 264 263 263 264 265 266 262 261 261 259 259 258 257 257 256 255 254 253 252 251 249 249 248 247 247 247 247 247 247 247 247 247 247 248 248 247 247 247 248 248 250 251 252 254 256 257 258 260 262 263 264 264 266 266 265 265 265 264 263 262 262 262 262 262 262 262
263 263 263 265 266 266 265 265 264 265 264 264 264 264 263 263 263 263 263 262 262 263 264 263 261 260 259 258 258 257 256 255 255 255 254 253 252 252 250 249 249 248 248 248 247 246 247 246 246 246 246 246 246 246 247 247 248 248 249 250 252 255 257 258 259 261 262 264 265 267 267 266 265 265 265 264 263 263 262 262 262 262 262 262 262
265 265 265 265 264 264 264 264 264 264 263 263 263 262 262 262 261 261 261 261 262 262 262 260 259 258 258 257 256 256 256 255 254 254 253 252 251 249 249 248 248 247 247 247 247 246 245 245 245 245 245 246 246 246 247 247 248 249 249 250 254 256 257 259 261 263 265 267 267 268 267 265 265 265 265 264 263 262 261 262 262 262 261 261 261
263 263 263 263 263 263 263 263 262 262 263 262 262 261 261 261 260 260 260 261 261 261 260 259 258 258 257 257 256 256 256 255 254 253 252 252 250 250 249 248 248 248 247 246 246 245 245 245 245 246 246 247 247 247 247 248 248 249 251 254 256 258 261 263 265 267 268 268 268 267 265 265 264 265 265 264 262 261 262 262 261 261 261 261 261
Wind_Speed
14 16 13 15 16 17 18 16 17 15 13 13 13 13 12 12 12 12 8 12 13 13 14 14 14 14 13 13 13 13 13 12 11 11 11 11 10 10 10 10 10 8 8 8 7 8 8 8 8 7 7 7 6 6 6 6 6 5 5 5 5 5 6 7 9 13 8 5 7 4 1 1 3 4 9 7 6 6 9 8 8 9 9 8 9
14 16 15 15 15 16 15 14 13 11 13 13 14 13 12 12 12 10 13 13 13 14 15 13 13 14 14 14 13 13 13 13 12 12 13 12 11 9 10 11 10 9 9 10 9 8 8 9 8 8 7 7 7 7 6 6 6 5 5 6 6 6 6 6 9 9 15 3 8 3 3 2 6 3 7 8 8 7 10 10 9 8 9 9 9
13 10 11 12 15 15 13 11 11 13 14 13 14 14 13 13 12 14 14 12 12 13 14 14 14 14 13 14 14 13 14 13 12 13 13 14 14 12 11 12 12 12 12 12 11 9 9 9 9 8 6 7 6 6 6 6 5 6 6 5 6 6 6 7 6 9 11 11 3 9 2 3 4 7 6 7 8 8 11 10 9 9 7 10 11
13 12 13 14 15 13 14 14 13 14 15 15 16 16 14 13 12 14 13 11 13 12 13 14 14 14 14 14 15 15 14 13 13 13 14 14 14 14 12 12 11 12 12 12 11 11 11 9 9 9 8 8 6 6 6 5 6 5 6 5 5 6 5 6 7 8 9 13 6 6 8 6 6 5 7 7 9 10 8 10 9 10 11 9 10
10 12 13 15 13 13 14 13 15 16 17 15 18 17 16 14 13 15 14 14 14 13 12 13 14 15 15 16 16 15 16 15 14 13 12 12 13 13 13 12 12 12 12 11 11 12 11 11 10 10 9 8 7 7 6 8 6 6 5 5 5 5 5 6 7 7 9 11 14 7 8 9 5 6 4 8 9 8 9 11 11 11 10 8 7
10 11 12 13 14 16 16 15 16 18 19 18 19 17 16 15 14 13 14 15 14 14 15 14 15 17 16 16 16 15 15 15 16 15 14 13 12 12 12 12 12 11 11 11 11 11 11 10 9 9 10 10 8 7 7 8 6 6 6 5 5 5 6 6 6 8 9 11 11 14 6 9 11 3 5 6 8 13 14 9 7 7 8 9 7
11 12 14 14 13 14 14 15 17 18 18 18 16 13 14 13 14 15 14 15 16 15 15 16 14 16 16 15 15 16 15 15 15 15 14 13 13 13 12 12 11 10 10 10 9 9 8 8 8 9 9 8 8 8 7 7 6 6 6 6 6 6 6 6 7 8 9 9 10 9 12 8 7 12 5 6 9 7 12 16 12 4 8 11 13
12 14 14 14 14 14 14 14 15 17 15 13 12 13 13 13 14 14 13 15 15 16 17 17 15 13 14 15 15 14 14 14 13 14 14 15 14 13 13 12 12 10 9 8 8 8 7 7 7 8 8 7 7 6 7 7 6 6 6 6 6 7 7 6 7 7 7 7 9 12 10 13 12 10 7 6 9 6 4 11 20 18 13 12 9
12 13 13 14 15 14 13 13 13 14 13 12 13 14 15 15 14 13 13 14 13 14 14 14 14 14 13 14 14 13 14 15 14 15 15 15 13 14 13 12 11 10 9 8 7 7 6 6 6 6 7 9 11 9 9 8 6 6 7 7 8 8 6 6 5 6 6 8 11 10 12 12 11 11 11 9 11 12 13 11 14 15 14 17 14
13 12 12 14 13 11 12 12 12 11 11 13 14 14 13 13 13 14 15 15 13 13 13 13 14 15 15 14 13 13 13 12 14 21 19 15 15 11 10 10 10 10 10 9 8 7 7 6 6 12 13 13 13 14 15 15 13 9 7 7 7 7 6 6 6 6 5 6 8 10 12 12 11 13 12 14 12 14 14 14 17 14 14 17 16
9 9 12 12 10 8 8 10 10 12 14 12 11 12 13 13 14 14 13 12 13 13 14 15 15 14 16 16 16 14 13 12 21 24 23 21 15 13 13 11 11 10 10 10 10 9 7 7 6 10 11 12 11 16 14 15 15 17 17 15 11 8 6 6 6 6 6 7 7 10 11 15 15 12 14 12 14 11 14 13 14 17 18 15 20
10 11 13 11 9 10 9 8 9 12 10 12 12 11 10 11 12 12 12 13 13 13 15 16 15 15 14 15 16 15 14 16 25 25 24 24 18 13 11 11 11 11 10 10 9 9 9 9 8 6 7 8 7 9 12 15 16 16 16 15 15 16 15 9 7 6 6 7 8 7 10 14 15 12 13 13 13 14 14 13 15 15 15 20 16
9 10 11 9 10 9 9 11 12 11 12 12 11 10 12 12 13 13 16 16 13 15 16 15 16 16 15 17 16 14 13 19 24 26 25 25 24 17 10 12 11 11 11 11 11 9 9 9 8 7 7 14 11 8 7 7 12 15 14 13 14 15 15 17 16 11 7 8 10 11 10 11 13 13 10 13 14 18 17 17 13 13 17 17 20
9 10 9 8 9 8 8 9 11 13 11 10 11 12 13 16 15 13 11 10 13 14 13 16 14 15 16 16 15 13 13 19 25 26 25 25 25 18 11 12 11 12 12 11 10 10 10 10 9 9 9 10 9 9 8 7 6 6 6 5 5 9 13 16 15 17 14 10 9 11 11 8 13 14 13 13 14 15 16 17 15 13 13 13 17
12 10 9 8 6 6 8 8 10 9 8 9 10 12 13 12 12 12 12 15 16 16 16 16 15 14 13 13 12 13 11 21 25 26 25 26 25 18 11 10 10 10 10 10 10 10 10 10 10 9 10 9 7 10 8 8 6 6 5 6 8 8 8 9 9 8 9 9 11 13 14 12 12 13 11 11 12 13 13 15 14 14 16 18 17
13 12 11 10 7 6 5 6 7 6 7 8 10 12 11 12 13 11 11 10 9 9 9 10 13 14 13 13 12 12 11 23 25 26 27 26 26 13 11 11 11 10 10 10 10 10 10 9 8 9 9 8 12 17 13 8 7 8 9 9 8 9 9 10 13 13 12 11 11 11 10 12 17 16 16 15 14 12 10 12 14 15 16 16 17
11 10 10 9 8 5 4 4 5 5 5 7 9 9 9 9 9 8 10 10 11 12 13 12 12 13 13 13 13 12 11 21 26 26 27 29 20 12 12 11 10 11 11 11 10 10 10 10 9 8 9 9 14 18 18 16 10 11 10 9 7 7 7 7 14 18 18 19 21 22 24 24 25 25 26 28 20 15 13 14 15 10 13 16 18
9 8 9 10 8 6 4 4 5 5 5 9 9 7 5 5 7 6 9 10 11 10 8 8 9 10 12 13 13 12 12 19 26 26 27 29 20 15 13 12 11 11 10 10 9 9 10 16 13 9 10 10 16 18 18 14 9 8 7 7 7 7 7 8 7 8 14 17 19 21 23 25 26 25 22 20 23 21 11 14 13 10 13 12 15
11 11 11 10 9 8 5 4 4 4 6 6 5 7 7 7 5 5 6 5 6 5 6 7 7 7 9 11 12 13 12 17 26 27 29 28 20 13 13 12 12 11 10 10 9 7 8 13 17 13 11 11 17 17 17 13 6 7 7 6 7 9 8 8 8 6 4 7 10 12 13 14 9 9 13 22 23 20 13 13 11 9 12 13 13
9 9 10 9 8 7 4 4 4 4 4 3 2 3 3 3 3 4 4 4 5 5 5 6 8 7 7 10 11 12 13 13 18 29 29 30 25 16 12 13 14 13 11 11 11 8 8 8 14 18 17 17 16 16 15 15 8 6 6 7 8 8 3 3 4 7 10 10 8 6 8 8 7 8 8 9 10 11 12 12 10 10 12 14 13
8 8 8 9 8 6 4 3 3 1 3 4 3 3 4 5 5 5 5 4 5 5 6 6 7 6 6 8 8 10 10 13 16 27 29 31 28 22 13 13 13 13 12 12 10 10 8 9 8 17 20 18 16 16 15 15 12 6 7 7 6 5 6 5 8 10 5 6 8 8 9 9 9 8 9 9 9 9 10 12 12 12 13 12 12
7 7 7 7 7 5 3 2 1 3 4 5 5 4 3 5 6 6 5 5 6 6 6 5 6 6 6 7 8 9 9 15 12 25 29 30 28 24 13 12 12 13 12 10 9 8 9 9 8 14 20 18 16 15 14 13 14 7 6 11 13 12 8 4 2 2 3 4 6 8 8 8 8 7 8 9 9 9 10 10 12 14 13 13 13
7 6 6 6 6 6 4 3 3 3 4 6 7 6 5 6 6 7 8 7 8 9 8 8 7 7 7 7 6 7 9 11 16 15 27 28 28 25 19 12 19 11 12 12 11 8 8 9 9 16 17 16 14 14 13 14 11 8 10 11 9 11 8 3 2 3 4 5 6 8 8 7 8 8 8 9 8 9 9 10 11 12 14 15 17
8 8 7 6 6 6 5 4 3 4 6 7 7 8 7 7 7 7 7 8 8 8 7 7 8 8 11 9 7 7 5 8 12 16 19 28 27 25 23 19 21 10 9 9 8 9 8 8 9 16 15 14 13 12 12 11 6 8 9 8 9 5 4 3 2 2 4 5 7 8 9 7 7 8 8 8 9 9 11 11 13 14 16 16 18
11 10 9 7 6 6 5 6 5 4 6 8 8 8 8 8 8 7 8 8 8 9 9 9 10 10 11 7 6 5 5 7 7 13 20 23 27 24 23 23 21 19 10 7 7 7 10 14 16 15 13 12 12 11 5 3 4 5 7 8 4 5 2 1 2 2 5 6 7 8 9 8 8 10 10 11 12 11 11 11 12 13 14 15 18
13 13 12 8 7 6 7 7 7 6 7 7 8 8 10 10 9 9 9 9 9 10 10 10 12 11 13 7 6 5 7 6 8 9 14 19 20 24 24 23 22 20 14 11 14 17 17 16 16 14 13 9 4 4 3 1 5 5 4 5 4 2 0 2 3 4 6 6 7 9 9 8 8 9 11 12 11 11 10 12 11 11 10 11 14
14 13 12 11 7 6 8 7 6 6 7 6 6 7 8 8 9 10 10 10 11 10 11 11 13 14 15 11 7 6 7 7 11 10 10 11 11 15 17 16 21 19 12 11 13 11 13 11 8 9 7 8 7 4 3 2 3 3 3 1 1 2 3 2 4 5 6 7 8 7 8 8 9 9 9 8 10 10 10 11 13 13 12 11 13
13 14 15 12 10 7 8 9 9 7 8 8 8 7 8 9 11 12 13 13 13 13 12 11 14 15 10 8 7 6 7 10 12 13 13 12 11 11 11 11 12 10 11 10 9 9 8 9 9 6 6 6 5 3 2 2 1 1 1 1 2 4 5 8 9 6 6 6 7 8 8 7 8 9 9 9 10 11 10 10 11 12 13 12 13
15 16 15 13 12 9 8 8 8 8 8 8 9 9 11 11 12 10 10 9 12 13 13 12 11 11 12 13 12 7 6 12 14 12 12 14 14 12 12 12 10 10 14 17 10 8 8 6 6 6 5 5 3 1 0 0 1 1 2 3 3 4 3 2 4 6 6 5 7 7 9 8 9 8 9 11 11 11 10 11 12 11 14 12 14
17 17 15 13 13 11 8 8 8 8 8 9 9 8 9 13 10 10 9 12 17 15 12 10 9 11 12 12 13 17 19 15 18 25 26 25 25 23 20 20 17 15 20 24 13 9 8 7 6 7 6 6 5 4 3 2 1 1 2 4 4 3 4 5 5 6 6 6 7 7 8 8 9 9 9 11 12 11 11 12 13 12 12 13 13
16 16 15 14 13 12 10 10 9 8 9 9 8 9 7 9 18 19 13 11 15 18 16 15 14 18 13 11 12 18 13 16 23 22 25 25 27 24 21 21 23 24 24 16 10 9 8 8 7 6 7 7 6 7 4 4 2 2 3 3 4 5 5 4 5 5 6 6 7 6 7 8 10 9 10 11 12 13 12 11 10 11 11 13 14
15 17 15 15 16 12 11 11 10 9 9 8 8 8 8 8 7 15 20 18 18 20 21 21 19 18 21 17 11 10 17 22 25 27 28 28 27 25 25 25 25 25 23 18 10 8 8 8 7 8 9 9 8 4 4 5 4 3 3 4 5 3 4 5 4 4 6 6 7 8 7 8 9 10 10 11 13 13 13 13 11 11 12 13 14
16 17 18 17 16 16 13 11 11 10 10 9 9 9 9 9 10 8 10 18 20 19 21 22 21 20 22 23 22 17 18 22 28 29 30 30 29 27 27 27 26 26 24 12 9 9 8 8 8 7 9 9 8 8 6 5 4 4 4 4 5 4 3 5 7 6 6 7 7 8 8 9 9 11 11 11 12 13 14 14 13 12 13 15 15
18 17 16 18 16 15 12 11 11 11 10 10 10 10 10 10 10 9 8 7 9 13 19 22 22 22 22 24 24 23 23 26 29 30 31 30 30 29 27 20 25 27 20 12 11 10 8 8 7 10 10 7 8 7 5 4 4 4 4 5 5 4 5 5 5 6 5 7 7 8 9 8 9 9 11 11 11 11 12 13 13 12 14 14 16
15 19 28 23 16 15 15 13 11 11 10 10 10 11 11 10 9 9 10 11 11 10 9 12 18 22 17 18 23 26 26 28 30 29 31 30 30 29 27 16 16 13 10 7 8 9 9 9 9 11 10 11 9 9 9 6 6 5 5 4 4 4 5 5 5 5 6 7 8 8 8 8 8 9 10 11 12 12 13 13 13 12 14 15 16
14 12 11 14 13 12 13 13 12 11 11 11 10 10 9 8 9 9 9 9 9 9 8 9 9 15 24 21 25 25 27 28 29 30 30 31 30 31 17 13 11 10 11 9 9 8 7 8 8 9 10 10 8 8 8 8 6 5 4 4 5 5 4 5 6 6 7 8 8 8 8 8 8 9 10 12 13 14 14 14 14 14 13 14 14
14 11 14 14 14 13 13 12 11 11 11 10 9 9 9 9 8 8 8 9 9 8 9 8 8 9 15 12 21 24 28 28 30 30 30 29 33 22 12 14 14 13 11 10 9 8 9 8 7 10 9 11 9 9 7 6 4 5 5 5 5 5 5 5 7 7 7 7 8 8 7 8 9 9 10 12 14 13 13 12 13 14 15 17 18
15 14 12 11 10 13 14 14 12 12 11 9 9 9 9 9 9 10 10 10 10 10 10 10 11 12 13 12 19 14 18 25 29 25 26 26 21 13 12 11 11 12 12 10 10 10 9 7 7 12 9 8 9 7 7 6 4 4 4 4 4 5 9 8 9 8 8 8 7 7 7 9 9 10 11 12 13 13 13 13 12 14 16 17 14
14 22 29 31 25 17 14 13 12 10 9 9 9 9 10 10 10 10 10 10 10 10 10 11 11 12 12 12 13 14 18 16 17 16 17 16 11 12 11 10 10 9 8 10 10 8 8 10 11 9 8 9 8 7 6 5 4 4 4 3 4 4 5 6 7 7 7 7 7 7 8 9 9 9 10 11 12 13 12 13 13 14 16 16 14
14 12 18 26 18 18 16 14 12 11 10 10 10 10 10 10 11 12 11 11 12 12 11 12 12 12 12 14 14 15 16 16 15 15 12 9 10 10 10 10 10 10 10 9 9 9 11 12 11 8 8 8 6 5 5 4 4 4 3 4 4 5 6 6 7 7 7 6 7 8 9 10 10 10 10 10 11 11 12 15 14 15 14 15 16
13 15 18 19 19 15 14 15 13 10 9 10 10 10 11 12 11 10 11 12 11 11 12 12 12 11 12 17 26 23 15 14 12 10 9 11 11 11 10 9 9 9 8 9 8 8 8 8 8 7 6 6 5 5 4 4 4 4 4 4 4 6 6 7 6 6 6 7 8 9 9 10 10 11 11 12 13 13 11 12 13 14 15 14 15
13 14 15 14 14 14 14 13 12 12 10 10 11 11 11 11 10 11 11 11 11 11 11 11 10 10 16 30 30 31 14 8 9 9 9 9 10 9 9 8 7 8 8 8 9 9 8 7 8 9 9 6 5 4 4 4 4 4 4 4 5 6 6 6 6 6 7 7 8 9 10 10 11 12 13 14 11 11 12 12 13 14 14 14 15
13 13 12 10 11 13 12 12 11 10 10 10 10 10 10 10 11 11 11 10 11 11 11 11 10 10 14 24 27 24 9 9 9 10 10 9 9 9 8 8 7 7 7 7 6 7 8 7 8 9 7 6 6 5 6 6 5 5 5 5 6 6 6 5 6 7 7 7 8 10 11 12 12 11 12 9 10 11 11 13 14 14 15 14 15
13 13 13 14 14 12 10 11 10 9 9 10 10 9 10 10 10 11 11 11 11 11 11 11 10 12 11 18 17 10 11 10 10 9 10 9 8 9 10 9 8 8 8 9 9 7 6 6 6 5 4 3 3 3 4 4 5 5 5 6 6 6 5 6 6 7 7 7 9 10 10 10 10 11 10 10 11 12 13 14 15 14 14 14 15
12 14 15 13 12 14 13 9 9 8 9 8 9 9 9 9 10 10 10 10 9 10 10 10 11 12 13 11 10 12 11 10 9 9 8 9 9 10 10 10 10 11 10 9 6 5 5 5 5 5 5 3 3 4 4 5 4 6 6 7 6 6 6 7 7 7 7 9 9 10 9 9 10 11 9 11 11 11 12 13 13 15 16 15 15
13 13 13 12 13 13 11 8 6 8 9 9 9 9 9 9 9 10 9 9 10 10 10 10 11 13 10 9 10 10 11 11 10 9 8 8 10 11 10 10 9 8 7 9 7 7 6 5 5 5 5 4 4 4 4 4 5 6 7 7 7 7 7 7 7 8 9 9 9 9 9 10 11 9 12 12 11 11 12 13 13 13 13 16 16
13 12 13 13 13 12 9 7 7 8 8 8 9 9 9 9 9 9 9 11 11 9 11 11 11 10 9 10 10 11 10 11 10 11 11 10 10 11 10 9 9 9 8 7 7 6 5 4 5 4 4 3 3 4 4 5 6 6 6 6 6 7 8 7 7 8 9 10 11 9 9 10 9 9 12 12 10 11 12 13 13 16 15 14 15
11 11 12 12 12 10 7 7 8 8 7 8 8 8 8 7 8 8 8 9 10 9 10 10 9 8 9 9 9 10 10 10 10 10 11 13 11 11 11 12 12 10 8 8 6 5 4 4 4 3 3 3 3 4 5 5 5 5 5 6 6 7 9 10 8 9 10 11 10 10 11 9 8 10 11 11 11 12 13 14 14 14 15 16 16
10 10 11 11 10 7 6 7 7 8 8 7 7 8 6 8 8 8 8 9 9 9 10 9 8 9 9 10 10 10 10 11 15 12 12 12 12 11 10 12 11 9 9 8 6 6 5 4 3 3 4 4 4 5 5 5 5 5 5 6 8 12 14 15 12 10 14 11 9 9 8 7 9 11 11 11 11 11 12 13 14 14 15 15 16
8 8 6 4 4 4 4 5 5 6 5 6 7 8 7 8 8 8 9 9 9 9 8 8 9 9 10 11 10 10 11 10 7 7 7 8 9 10 11 11 10 8 7 7 5 5 4 4 3 3 4 4 5 5 5 5 6 6 5 7 11 14 15 17 18 21 15 9 11 9 7 8 9 10 10 9 10 12 13 13 14 14 14 15 16
7 7 6 6 6 6 7 7 7 7 7 8 8 9 9 9 8 8 9 10 10 9 9 9 9 9 10 10 10 10 10 8 8 7 7 6 9 12 10 10 8 7 5 4 3 3 3 3 4 4 4 4 5 5 5 6 6 6 8 12 14 15 17 17 12 15 21 18 12 6 6 9 10 11 10 9 10 11 14 15 15 14 14 14 15
Wind_Direction
198 208 199 206 203 203 208 206 210 206 199 198 199 201 197 194 195 196 171 187 183 183 185 188 187 187 184 186 185 185 183 180 179 174 177 178 179 175 169 176 176 174 169 174 176 174 179 178 177 176 167 169 169 167 169 170 171 177 180 178 198 200 199 227 245 276 270 229 271 256 234 231 271 262 282 278 281 285 288 287 288 292 290 289 290
212 209 202 205 203 210 210 211 211 201 201 198 202 199 198 196 193 179 189 191 183 186 186 184 185 184 184 186 187 186 185 182 179 176 178 177 178 175 175 177 177 175 173 178 179 180 177 175 178 175 178 173 168 173 170 171 172 179 189 189 204 209 214 217 252 263 287 259 284 250 257 212 268 227 258 286 285 288 290 293 290 280 289 290 288
227 222 209 206 209 211 208 208 204 206 204 202 202 200 200 196 185 189 191 188 187 186 185 182 182 183 186 186 184 185 186 184 182 181 182 180 178 178 179 179 179 177 181 185 181 175 176 181 181 174 171 173 179 174 168 175 174 182 196 195 204 217 217 228 245 266 277 286 259 291 227 257 258 284 273 271 280 282 287 285 288 290 279 282 283
218 216 215 214 213 208 207 205 198 201 204 206 204 202 198 195 188 190 189 183 185 190 184 181 177 181 186 187 187 186 183 184 184 186 184 181 179 180 178 181 183 185 185 181 179 180 182 177 183 175 173 175 179 172 174 173 180 186 194 204 204 216 224 222 237 252 279 289 276 280 301 295 276 260 283 284 288 287 271 284 280 276 279 272 266
216 220 219 217 208 206 211 205 202 203 205 205 208 202 198 194 189 191 184 187 187 182 185 180 181 181 187 189 188 187 186 182 181 185 186 183 182 177 179 181 186 188 187 185 183 181 181 186 175 172 174 173 178 174 175 180 185 185 198 202 208 220 224 230 239 246 267 275 289 281 290 291 267 281 279 297 298 281 286 287 289 288 281 266 266
222 226 227 224 216 207 208 202 207 206 206 207 207 202 200 194 189 190 188 188 183 187 183 183 185 188 188 187 186 187 185 183 182 183 182 179 180 181 181 183 186 185 187 187 185 185 183 178 172 172 177 180 180 171 175 181 180 190 197 204 212 219 227 237 242 250 256 268 282 297 286 303 309 272 295 295 302 308 303 289 280 284 287 291 279
223 223 225 226 224 216 209 207 208 209 210 209 205 199 197 194 188 192 189 189 185 184 186 186 190 187 188 182 184 184 186 186 183 180 179 180 179 179 180 184 185 185 190 187 183 181 178 172 172 176 181 180 174 173 172 177 183 193 196 203 214 219 230 237 240 247 253 265 277 280 296 295 286 302 299 286 288 287 303 311 305 274 288 297 302
225 223 224 225 225 221 215 214 214 215 214 209 200 198 194 190 193 192 186 189 188 187 186 189 188 185 184 185 186 181 181 184 185 183 180 178 179 181 182 182 182 184 181 180 178 176 174 171 172 180 180 179 173 170 170 180 173 188 196 198 209 221 232 238 244 250 260 270 284 300 301 301 305 289 289 302 302 290 283 311 308 313 311 296 290
237 233 228 225 225 221 216 215 217 219 211 204 200 197 194 193 190 188 189 193 189 189 187 183 179 185 185 185 182 181 182 186 185 183 180 179 179 181 180 179 176 175 173 173 173 169 169 174 176 179 176 182 184 185 187 182 174 187 202 200 213 220 230 237 242 257 270 279 288 291 294 298 297 306 313 318 317 313 315 308 298 303 306 307 303
230 233 237 241 240 230 222 219 217 211 209 208 203 198 193 189 186 188 192 191 187 183 180 182 185 184 181 182 183 184 188 189 187 185 182 177 175 174 171 174 173 170 168 167 171 174 174 171 180 187 192 194 200 202 203 203 199 192 201 206 210 216 225 234 242 245 258 270 283 297 298 295 299 306 307 307 307 308 307 309 303 306 304 302 295
239 239 242 240 242 241 236 231 219 214 212 211 207 195 192 188 188 189 186 185 184 182 180 184 186 184 184 183 184 189 189 190 186 186 183 176 169 168 169 169 168 168 172 172 173 171 172 173 175 194 196 202 205 210 210 208 212 212 212 214 213 206 199 227 245 256 265 268 280 287 286 291 296 301 301 308 309 306 306 306 303 309 310 309 309
244 241 241 242 234 228 225 227 223 224 211 209 204 198 189 184 185 185 182 183 186 180 186 189 185 187 187 186 188 189 190 186 184 183 180 176 170 164 163 164 167 171 171 172 170 169 173 173 182 186 196 195 196 208 212 214 217 222 227 234 240 246 248 245 248 249 253 267 270 265 287 288 295 298 300 307 306 303 301 301 301 303 300 301 294
264 257 254 245 239 228 216 210 214 216 214 207 198 189 187 186 185 182 189 190 180 186 191 184 191 189 187 188 191 189 190 182 183 181 179 176 169 162 165 163 166 171 172 172 172 167 166 172 177 186 188 195 195 195 197 218 223 224 229 233 239 242 247 253 257 260 268 269 273 274 269 286 292 290 292 299 303 299 303 299 297 290 288 286 287
286 275 273 261 250 237 225 219 220 218 210 204 196 192 189 192 191 189 181 173 186 190 189 192 190 190 190 189 189 186 184 182 182 181 179 173 168 162 163 163 168 172 172 173 171 168 172 173 175 180 177 185 185 177 177 189 200 217 226 238 243 248 251 257 261 263 265 265 270 274 276 270 276 283 289 292 295 297 297 291 293 290 295 291 300
314 305 297 286 271 249 233 224 226 222 210 205 203 203 199 195 185 185 181 186 187 190 189 190 191 189 189 187 186 185 182 180 182 179 177 172 168 157 159 162 165 170 171 172 173 172 175 176 179 172 167 175 169 176 171 182 186 205 215 222 231 230 235 238 245 247 252 254 259 265 268 266 266 274 283 284 278 276 276 288 306 306 299 297 291
334 331 321 311 299 278 259 247 238 225 207 203 206 208 204 195 191 186 185 190 191 186 193 192 188 188 187 182 181 182 177 181 180 179 175 171 165 153 161 164 166 169 171 174 173 176 178 175 165 168 171 172 186 194 192 184 194 204 214 221 223 229 241 249 254 257 258 255 253 255 259 267 276 282 285 288 291 289 300 308 309 304 302 297 290
344 332 320 309 301 291 278 258 248 232 215 211 214 214 209 206 198 183 186 190 187 192 194 191 189 185 183 184 181 178 173 183 181 177 175 171 160 154 163 164 168 169 174 174 176 178 180 175 172 167 177 180 190 197 198 195 195 203 208 211 221 231 245 250 264 267 267 270 274 278 282 284 285 287 288 289 290 305 316 306 292 299 294 295 294
337 330 319 311 303 292 269 244 238 224 210 214 213 210 211 211 204 190 193 189 194 198 187 187 189 186 183 184 181 172 176 183 181 180 176 174 159 160 165 165 167 170 170 174 173 179 181 176 176 177 183 187 192 200 201 201 199 196 201 219 221 235 254 258 263 267 273 277 279 281 283 283 283 285 289 294 295 298 295 283 290 301 284 279 285
337 330 321 314 306 292 269 236 228 220 219 222 209 207 202 203 190 177 192 185 191 173 180 184 183 185 189 183 176 173 173 184 183 182 179 175 161 164 164 165 165 170 168 167 168 157 169 183 189 187 188 188 196 198 203 201 195 203 206 218 237 245 246 260 270 276 278 277 269 269 274 280 287 295 294 292 291 289 281 277 286 276 277 279 278
321 316 314 314 312 304 284 254 232 213 212 202 185 195 160 149 158 160 166 164 166 163 175 182 185 188 179 181 184 178 176 185 188 185 183 181 166 165 167 166 172 167 166 167 165 173 174 184 199 197 192 193 195 199 203 208 199 202 206 223 234 239 247 270 268 268 263 259 270 284 287 286 284 293 288 282 275 267 266 263 263 268 274 277 279
320 320 320 319 317 308 300 263 232 178 152 156 140 129 141 150 140 153 159 149 149 161 171 172 175 182 182 187 184 185 183 183 193 188 188 187 174 167 173 174 167 165 167 167 173 171 171 182 191 200 197 193 194 200 206 215 216 207 219 225 232 251 261 241 255 275 300 304 300 297 292 291 285 283 280 276 273 270 265 270 263 267 269 272 277
315 321 322 319 311 298 278 252 177 152 133 133 135 142 132 137 151 154 153 147 154 162 163 168 176 179 183 186 190 185 187 192 190 194 192 191 181 172 167 177 165 160 161 167 170 169 172 178 180 194 195 194 195 200 207 213 222 218 227 244 256 262 266 276 59 47 301 303 296 288 282 281 277 274 273 273 270 265 267 265 270 271 269 268 274
313 313 311 307 299 283 266 224 201 166 155 155 155 157 146 144 152 155 158 161 168 173 174 175 176 183 184 189 189 181 187 195 199 196 194 193 188 180 171 164 169 161 163 166 172 170 167 175 177 184 184 184 188 196 205 217 225 241 250 253 256 266 280 72 34 351 322 294 286 276 275 271 279 279 275 276 268 264 264 267 267 269 268 267 264
314 305 297 286 276 266 258 251 225 189 168 161 161 158 160 158 158 170 171 173 177 179 185 182 186 188 167 169 163 159 177 191 204 202 196 194 191 180 179 172 175 158 162 160 158 166 168 167 171 179 176 178 188 199 208 221 231 240 248 259 270 297 58 13 15 307 284 276 267 271 274 273 274 276 277 277 279 275 277 273 271 266 269 270 269
312 307 297 283 263 252 243 243 233 214 194 172 169 170 164 165 167 175 176 184 185 189 190 188 196 189 155 185 167 160 149 183 199 206 201 197 193 179 177 178 176 165 159 158 153 162 163 163 169 175 175 178 191 205 215 229 238 252 265 271 314 64 31 28 268 265 261 262 264 269 271 272 273 279 281 286 285 284 279 274 267 263 261 264 265
309 303 301 286 264 243 237 239 233 227 212 205 190 180 176 178 181 180 186 193 191 197 196 195 192 189 178 166 167 157 165 159 190 199 201 196 195 182 175 176 176 171 160 162 160 162 163 166 174 178 183 179 143 82 82 239 258 267 299 351 46 2 57 238 254 242 259 263 267 269 275 282 285 283 289 289 288 283 286 282 282 273 268 268 273
304 301 296 294 271 231 235 233 226 225 218 220 207 189 182 180 185 188 192 191 195 201 203 199 177 176 171 161 153 162 172 174 186 192 192 190 192 179 175 176 174 167 160 163 159 159 164 166 184 167 125 136 129 133 110 33 23 16 32 1 322 260 248 233 238 255 259 264 268 276 278 286 287 290 285 284 280 279 276 281 281 282 282 276 276
304 301 296 292 282 247 237 232 225 220 218 210 206 204 195 189 192 197 194 195 192 201 199 201 194 190 186 154 156 155 177 185 190 189 190 185 182 173 165 162 166 158 151 155 147 138 133 144 130 89 86 64 65 41 35 54 34 358 331 289 278 270 268 277 277 270 275 272 277 275 281 282 287 285 288 284 281 280 279 273 278 284 287 291 288
306 298 293 288 279 261 239 234 221 224 220 215 221 211 196 196 206 213 215 204 201 196 196 204 197 193 189 187 178 168 156 192 198 189 187 185 176 167 159 163 157 146 158 147 118 84 100 109 121 117 102 118 98 88 29 9 340 288 300 306 279 265 254 243 248 260 259 271 273 280 283 290 287 291 286 288 286 287 286 285 282 280 288 285 282
299 292 288 282 277 270 252 240 227 224 220 220 219 229 224 215 210 208 212 208 218 219 211 209 193 181 191 198 188 190 193 195 180 186 188 184 181 174 168 164 157 148 152 147 136 133 138 147 158 158 152 152 165 175 171 166 234 317 282 273 270 265 257 250 247 256 266 266 273 280 286 290 291 291 291 288 292 289 286 287 290 289 289 291 290
289 285 284 279 272 266 258 250 236 224 223 222 218 220 225 224 223 222 221 208 210 217 217 215 196 192 190 189 192 196 187 178 183 184 185 184 180 174 165 157 150 152 149 137 136 151 155 161 166 160 170 163 172 165 158 160 181 224 250 241 232 243 261 262 260 260 263 270 273 277 281 287 286 289 290 293 293 296 297 290 281 285 282 290 292
281 282 281 280 279 271 257 251 241 229 228 218 215 216 217 220 226 223 222 219 217 217 219 218 210 201 197 192 179 183 185 183 181 183 184 182 179 173 168 162 161 161 160 147 138 151 161 165 169 179 157 163 171 165 165 156 173 206 238 267 265 232 243 261 272 268 275 278 282 285 283 280 283 286 290 292 296 295 297 296 294 293 293 293 289
277 277 278 276 274 271 263 252 244 234 227 217 216 212 214 213 216 213 217 220 218 217 218 217 214 211 205 199 189 181 179 180 182 181 182 180 176 173 170 167 167 169 161 145 156 157 167 171 175 172 169 186 173 169 166 157 158 194 219 233 265 275 263 268 287 282 277 275 280 280 281 283 285 290 292 296 297 297 297 296 296 295 297 299 296
274 273 272 273 273 275 267 254 246 240 226 222 218 214 216 214 215 203 187 191 215 220 221 217 214 209 207 203 195 184 181 182 185 182 180 177 174 171 167 168 168 176 167 157 162 166 165 175 176 160 169 169 163 157 161 164 169 182 215 234 242 261 267 278 275 271 274 278 277 272 274 275 283 294 297 296 290 285 288 288 294 297 299 299 298
265 265 266 267 267 265 265 259 250 240 235 223 220 215 217 214 205 201 194 197 195 198 194 209 214 211 206 202 198 186 182 184 183 180 178 176 173 169 163 163 172 170 142 149 157 160 165 175 174 165 168 167 181 161 163 161 162 190 215 228 241 248 262 259 258 266 270 271 267 264 270 281 287 287 288 290 293 295 292 292 295 296 299 299 300
264 265 270 264 260 255 251 253 244 239 233 230 221 217 214 206 202 203 200 197 195 191 192 194 193 205 201 196 192 189 182 182 181 180 178 175 172 169 167 174 158 154 159 159 155 161 165 170 169 175 165 159 156 165 163 159 187 199 199 203 241 249 251 264 264 268 268 263 267 278 287 286 285 286 285 283 281 285 292 294 296 297 296 295 296
270 267 267 267 271 276 279 263 247 236 228 226 217 213 211 206 203 198 195 195 193 192 188 175 165 187 197 188 188 187 183 181 180 179 178 177 176 174 167 165 165 166 163 161 156 155 162 165 163 128 164 167 177 164 164 169 174 175 214 224 227 249 256 255 260 252 258 273 275 277 281 284 284 280 282 287 291 290 288 291 293 294 298 296 298
264 263 260 258 251 254 255 262 257 238 230 221 212 211 206 202 198 196 194 193 190 186 181 179 179 179 179 178 180 181 184 181 178 178 180 179 180 169 166 163 159 159 163 161 162 157 165 166 149 151 171 176 158 165 153 180 195 197 211 218 232 230 260 266 275 280 270 262 268 277 284 283 281 281 282 283 289 293 293 296 299 302 302 301 300
263 266 268 271 272 274 274 265 253 236 223 215 207 203 203 199 196 194 195 191 189 187 185 182 182 181 175 165 171 174 176 177 179 180 180 182 167 158 156 154 154 153 151 153 153 160 158 151 134 142 157 178 169 173 176 190 187 200 213 222 243 251 261 262 259 258 262 265 274 281 282 281 280 279 282 286 289 291 291 297 302 303 302 303 302
261 258 262 261 261 260 260 263 252 228 214 207 207 201 201 199 197 196 191 188 190 187 185 184 184 184 171 169 172 176 178 182 180 177 169 148 146 149 144 152 155 157 154 154 158 151 139 112 146 173 182 176 180 180 181 184 191 204 202 219 237 251 253 250 254 262 269 282 281 282 283 284 284 283 285 283 283 288 300 306 303 302 300 297 298
255 259 260 258 253 253 247 248 253 234 220 209 204 198 199 199 197 191 191 192 190 187 186 186 183 178 175 178 180 179 176 178 170 155 143 145 145 147 155 154 153 150 148 149 153 153 155 159 172 173 179 182 177 177 177 184 201 204 213 222 236 248 257 258 256 265 271 278 277 277 280 284 289 293 293 294 298 299 294 296 298 299 299 298 298
253 252 253 253 248 242 243 240 237 229 214 206 201 200 198 195 191 191 192 192 190 187 183 180 176 172 177 180 182 181 173 154 141 140 135 134 143 147 148 145 144 144 149 152 151 154 156 163 165 162 169 173 171 175 175 196 206 211 216 225 237 250 253 260 267 272 273 272 275 278 281 288 292 293 293 292 296 303 304 303 303 301 300 301 301
288 288 286 274 250 234 234 233 225 215 205 204 201 197 191 187 189 191 191 188 187 180 179 172 168 161 175 179 182 174 130 133 133 139 138 139 139 140 139 143 140 138 139 138 137 145 151 156 163 174 177 177 174 174 181 200 193 202 214 228 240 244 257 267 276 273 270 271 276 282 285 288 289 287 292 289 301 304 302 304 304 304 303 300 306
275 276 268 267 275 276 248 230 221 206 203 199 192 190 186 188 187 187 186 183 180 176 174 169 160 163 163 179 172 125 135 134 140 138 140 139 139 130 114 112 123 111 89 89 77 109 136 147 157 161 159 161 171 183 195 200 196 202 216 227 239 248 254 264 264 269 273 281 285 286 287 282 284 292 291 306 310 307 309 309 306 304 305 306 306
258 261 263 267 260 257 260 238 215 200 191 188 189 188 183 183 184 184 180 177 172 169 166 159 161 160 167 160 138 144 135 137 132 128 135 139 135 115 103 115 116 117 114 90 98 118 134 149 156 156 170 181 191 200 215 214 211 218 215 223 229 249 251 256 259 272 279 281 278 276 275 280 289 288 302 311 307 307 305 306 305 306 308 308 309
252 255 256 256 256 249 245 230 204 188 185 183 182 179 178 182 178 176 172 168 164 161 157 160 163 166 159 134 137 132 138 132 134 133 129 126 123 117 109 115 111 114 113 98 109 107 126 160 165 165 170 178 191 206 223 221 228 224 228 223 234 244 253 263 272 278 277 277 277 276 280 284 287 291 311 308 308 306 304 303 304 304 305 308 308
249 248 251 250 251 244 230 204 190 186 181 183 177 177 174 177 171 167 167 163 159 155 156 158 162 157 132 134 136 134 133 133 131 129 128 128 114 115 125 117 97 90 95 102 105 115 158 170 171 167 171 181 199 218 230 229 229 230 229 233 233 248 252 258 262 265 271 275 278 273 277 283 290 311 310 308 307 308 308 308 310 312 312 311 310
237 235 238 243 246 236 206 186 183 178 172 171 168 169 166 160 157 156 150 147 143 146 147 151 146 118 121 124 121 127 126 126 123 122 116 104 109 119 124 106 100 105 97 102 114 134 165 175 167 163 180 208 222 234 237 239 241 241 243 242 242 241 253 256 264 270 269 273 271 268 270 278 305 308 306 307 308 313 314 315 315 314 315 315 314
226 222 227 231 224 202 175 172 165 167 161 151 147 145 139 139 139 133 134 133 139 141 149 140 116 118 116 117 118 112 114 112 100 107 108 109 114 113 119 94 98 99 107 107 132 157 164 162 162 174 197 215 223 235 248 252 256 253 257 255 259 262 268 272 272 272 272 270 267 273 282 300 305 304 303 304 307 310 311 310 313 314 316 314 314
218 219 202 174 139 125 117 119 120 121 119 127 128 121 123 123 124 128 132 133 134 138 132 118 121 123 124 123 121 122 123 126 118 115 114 111 114 88 85 95 100 102 105 123 131 147 134 132 167 198 212 221 231 234 243 246 253 256 261 264 273 278 280 280 281 278 279 288 291 291 293 306 303 300 298 303 306 311 312 314 316 318 316 316 315
54 61 71 77 87 94 100 106 110 113 122 126 126 130 131 131 131 131 132 135 135 131 123 119 120 122 125 128 129 127 126 116 105 103 113 120 125 98 100 91 107 101 100 102 110 118 140 154 166 202 222 225 236 237 241 244 253 253 263 270 276 276 275 278 283 295 300 300 295 292 311 309 305 302 302 306 310 311 313 316 317 319 319 317 315